When you browse on this site, cookies collect data to enhance your experience and personalize the content and advertising you see.
Visit our Privacy Policy to learn more. By continuing to use the site, you agree to this use of cookies and data.
  • In Schweiz
  • Länderverzeichnis
  • Für 7 Tage
  • Wassertemperatur
  • Satellitenkarten
  • Wetterkarte
  • Widgets
  • user-avatar
    Anmelden

    Stündliche Wetter Tomashivka

    Heute, 17 Juli, Mittwoch

    Zeit Temperatur Niederschläge Wind Luftdruck Luftfeuchtigkeit
    00:00 +14°C° 0.1 mm 2 m/S 730 mmHg 87%
    01:00 +14°C° 0.1 mm 2 m/S 730 mmHg 90%
    02:00 +13°C° 0.1 mm 3 m/S 730 mmHg 93%
    03:00 +13°C° 0.8 mm 3 m/S 730 mmHg 94%
    04:00 +13°C° 0.8 mm 3 m/S 730 mmHg 95%
    05:00 +13°C° 0.8 mm 3 m/S 730 mmHg 96%
    06:00 +13°C° 0.4 mm 3 m/S 730 mmHg 93%
    07:00 +14°C° 0.4 mm 3 m/S 729 mmHg 89%
    08:00 +14°C° 0.4 mm 3 m/S 729 mmHg 86%
    09:00 +16°C° 0.1 mm 3 m/S 729 mmHg 81%
    10:00 +18°C° 0.1 mm 4 m/S 730 mmHg 76%
    11:00 +19°C° 0.1 mm 4 m/S 730 mmHg 71%
    12:00 +19°C° 0.6 mm 4 m/S 729 mmHg 70%
    13:00 +20°C° 0.6 mm 5 m/S 729 mmHg 70%
    14:00 +20°C° 0.6 mm 5 m/S 729 mmHg 69%
    15:00 +20°C° 0.3 mm 5 m/S 729 mmHg 69%
    16:00 +20°C° 0.3 mm 5 m/S 729 mmHg 70%
    17:00 +19°C° 0.3 mm 5 m/S 729 mmHg 70%
    18:00 +17°C° 0 mm 5 m/S 729 mmHg 75%
    19:00 +17°C° 0 mm 4 m/S 729 mmHg 80%
    20:00 +15°C° 0 mm 4 m/S 729 mmHg 85%
    21:00 +14°C° 0 mm 4 m/S 729 mmHg 88%
    22:00 +13°C° 0 mm 3 m/S 729 mmHg 90%
    23:00 +12°C° 0 mm 3 m/S 730 mmHg 92%

    Morgen, 18 Juli, Donnerstag

    Zeit Temperatur Niederschläge Wind Luftdruck Luftfeuchtigkeit
    00:00 +12°C° 0 mm 3 m/S 730 mmHg 93%
    01:00 +11°C° 0 mm 3 m/S 730 mmHg 93%
    02:00 +11°C° 0 mm 3 m/S 730 mmHg 93%
    03:00 +11°C° 0 mm 3 m/S 730 mmHg 94%
    04:00 +11°C° 0 mm 3 m/S 730 mmHg 94%
    05:00 +10°C° 0 mm 3 m/S 730 mmHg 95%
    06:00 +12°C° 0 mm 4 m/S 730 mmHg 90%
    07:00 +14°C° 0 mm 4 m/S 730 mmHg 86%
    08:00 +15°C° 0 mm 5 m/S 731 mmHg 81%
    09:00 +16°C° 0 mm 5 m/S 731 mmHg 76%
    10:00 +19°C° 0 mm 5 m/S 731 mmHg 71%
    11:00 +20°C° 0 mm 5 m/S 731 mmHg 66%
    12:00 +20°C° 0 mm 5 m/S 731 mmHg 64%
    13:00 +21°C° 0 mm 5 m/S 731 mmHg 62%
    14:00 +21°C° 0 mm 5 m/S 731 mmHg 60%
    15:00 +21°C° 0 mm 5 m/S 731 mmHg 61%
    16:00 +21°C° 0 mm 4 m/S 731 mmHg 62%
    17:00 +21°C° 0 mm 4 m/S 731 mmHg 63%
    18:00 +19°C° 0 mm 3 m/S 731 mmHg 69%
    19:00 +18°C° 0 mm 3 m/S 732 mmHg 75%
    20:00 +16°C° 0 mm 2 m/S 732 mmHg 80%
    21:00 +16°C° 0 mm 2 m/S 732 mmHg 82%
    22:00 +15°C° 0 mm 2 m/S 732 mmHg 83%
    23:00 +14°C° 0 mm 1 m/S 733 mmHg 84%

    übermorgen, 19 Juli, Freitag

    Zeit Temperatur Niederschläge Wind Luftdruck Luftfeuchtigkeit
    00:00 +14°C° 0 mm 1 m/S 733 mmHg 85%
    01:00 +14°C° 0 mm 1 m/S 733 mmHg 86%
    02:00 +13°C° 0 mm 1 m/S 733 mmHg 87%
    03:00 +13°C° 0 mm 1 m/S 733 mmHg 87%
    04:00 +13°C° 0 mm 1 m/S 733 mmHg 87%
    05:00 +13°C° 0 mm 1 m/S 733 mmHg 87%
    06:00 +15°C° 0 mm 1 m/S 733 mmHg 82%
    07:00 +18°C° 0 mm 1 m/S 734 mmHg 76%
    08:00 +20°C° 0 mm 1 m/S 734 mmHg 71%
    09:00 +21°C° 0.2 mm 1 m/S 734 mmHg 68%
    10:00 +22°C° 0.2 mm 1 m/S 734 mmHg 65%
    11:00 +23°C° 0.2 mm 1 m/S 734 mmHg 62%
    12:00 +23°C° 1 mm 1 m/S 734 mmHg 62%
    13:00 +24°C° 1 mm 1 m/S 734 mmHg 62%
    14:00 +24°C° 1 mm 1 m/S 734 mmHg 62%
    15:00 +24°C° 0.6 mm 1 m/S 733 mmHg 62%
    16:00 +24°C° 0.6 mm 1 m/S 733 mmHg 62%
    17:00 +24°C° 0.6 mm 1 m/S 733 mmHg 63%
    18:00 +23°C° 0.1 mm 1 m/S 733 mmHg 68%
    19:00 +21°C° 0.1 mm 1 m/S 733 mmHg 74%
    20:00 +20°C° 0.1 mm 1 m/S 733 mmHg 80%
    21:00 +19°C° 0 mm 1 m/S 734 mmHg 80%
    22:00 +19°C° 0 mm 1 m/S 734 mmHg 81%
    23:00 +17°C° 0 mm 2 m/S 734 mmHg 82%

    20 Juli, Samstag

    Zeit Temperatur Niederschläge Wind Luftdruck Luftfeuchtigkeit
    00:00 +18°C° 0.7 mm 1 m/S 734 mmHg 84%
    01:00 +16°C° 0.7 mm 1 m/S 734 mmHg 86%
    02:00 +16°C° 0.7 mm 1 m/S 734 mmHg 89%
    03:00 +16°C° 0.2 mm 1 m/S 734 mmHg 89%
    04:00 +16°C° 0.2 mm 1 m/S 734 mmHg 88%
    05:00 +16°C° 0.2 mm 1 m/S 734 mmHg 88%
    06:00 +18°C° 0 mm 1 m/S 734 mmHg 85%
    07:00 +20°C° 0 mm 1 m/S 734 mmHg 81%
    08:00 +21°C° 0 mm 1 m/S 735 mmHg 77%
    09:00 +22°C° 0.2 mm 1 m/S 735 mmHg 73%
    10:00 +24°C° 0.2 mm 1 m/S 735 mmHg 68%
    11:00 +25°C° 0.2 mm 1 m/S 735 mmHg 64%
    12:00 +26°C° 1.8 mm 1 m/S 735 mmHg 61%
    13:00 +26°C° 1.8 mm 1 m/S 735 mmHg 58%
    14:00 +27°C° 1.8 mm 1 m/S 735 mmHg 55%
    15:00 +27°C° 0.1 mm 1 m/S 735 mmHg 55%
    16:00 +27°C° 0.1 mm 1 m/S 735 mmHg 56%
    17:00 +27°C° 0.1 mm 1 m/S 735 mmHg 56%
    18:00 +25°C° 0 mm 1 m/S 735 mmHg 61%
    19:00 +24°C° 0 mm 1 m/S 735 mmHg 67%
    20:00 +22°C° 0 mm 1 m/S 735 mmHg 72%
    21:00 +21°C° 0 mm 1 m/S 735 mmHg 74%
    22:00 +19°C° 0 mm 0 m/S 735 mmHg 75%
    23:00 +18°C° 0 mm 0 m/S 735 mmHg 77%

    21 Juli, Sonntag

    Zeit Temperatur Niederschläge Wind Luftdruck Luftfeuchtigkeit
    00:00 +18°C° 0 mm 0 m/S 735 mmHg 78%
    01:00 +17°C° 0 mm 0 m/S 735 mmHg 79%
    02:00 +17°C° 0 mm 0 m/S 735 mmHg 80%
    03:00 +17°C° 0 mm 0 m/S 735 mmHg 81%
    04:00 +17°C° 0 mm 0 m/S 735 mmHg 82%
    05:00 +17°C° 0 mm 0 m/S 735 mmHg 82%
    06:00 +18°C° 0 mm 0 m/S 735 mmHg 78%
    07:00 +22°C° 0 mm 1 m/S 736 mmHg 75%
    08:00 +24°C° 0 mm 1 m/S 736 mmHg 71%
    09:00 +25°C° 0.5 mm 1 m/S 736 mmHg 69%
    10:00 +26°C° 0.5 mm 1 m/S 736 mmHg 66%
    11:00 +27°C° 0.5 mm 2 m/S 736 mmHg 64%
    12:00 +28°C° 0.1 mm 2 m/S 736 mmHg 61%
    13:00 +28°C° 0.1 mm 2 m/S 736 mmHg 57%
    14:00 +29°C° 0.1 mm 2 m/S 736 mmHg 54%
    15:00 +29°C° 0 mm 2 m/S 736 mmHg 55%
    16:00 +29°C° 0 mm 1 m/S 736 mmHg 56%
    17:00 +29°C° 0 mm 1 m/S 735 mmHg 57%
    18:00 +27°C° 0.1 mm 1 m/S 735 mmHg 63%
    19:00 +25°C° 0.1 mm 1 m/S 735 mmHg 69%
    20:00 +24°C° 0.1 mm 1 m/S 735 mmHg 75%
    21:00 +23°C° 0.1 mm 1 m/S 735 mmHg 77%
    22:00 +22°C° 0.1 mm 1 m/S 735 mmHg 80%
    23:00 +22°C° 0.1 mm 1 m/S 735 mmHg 82%

    22 Juli, Montag

    Zeit Temperatur Niederschläge Wind Luftdruck Luftfeuchtigkeit
    00:00 +21°C° 0.2 mm 1 m/S 735 mmHg 82%
    01:00 +21°C° 0.2 mm 1 m/S 735 mmHg 83%
    02:00 +21°C° 0.2 mm 1 m/S 735 mmHg 83%
    03:00 +20°C° 0.3 mm 1 m/S 735 mmHg 84%
    04:00 +20°C° 0.3 mm 1 m/S 735 mmHg 84%
    05:00 +18°C° 0.3 mm 0 m/S 735 mmHg 85%
    06:00 +21°C° 0 mm 1 m/S 735 mmHg 82%
    07:00 +23°C° 0 mm 1 m/S 735 mmHg 80%
    08:00 +24°C° 0 mm 1 m/S 735 mmHg 77%
    09:00 +25°C° 0.7 mm 2 m/S 735 mmHg 77%
    10:00 +25°C° 0.7 mm 3 m/S 735 mmHg 76%
    11:00 +25°C° 0.7 mm 3 m/S 735 mmHg 76%
    12:00 +26°C° 0.2 mm 3 m/S 735 mmHg 71%
    13:00 +26°C° 0.2 mm 2 m/S 735 mmHg 67%
    14:00 +27°C° 0.2 mm 1 m/S 735 mmHg 62%
    15:00 +27°C° 0.4 mm 2 m/S 735 mmHg 65%
    16:00 +27°C° 0.4 mm 2 m/S 734 mmHg 68%
    17:00 +26°C° 0.4 mm 2 m/S 734 mmHg 71%
    18:00 +25°C° 0.1 mm 2 m/S 734 mmHg 76%
    19:00 +24°C° 0.1 mm 2 m/S 734 mmHg 81%
    20:00 +21°C° 0.1 mm 2 m/S 734 mmHg 86%
    21:00 +21°C° 0.2 mm 2 m/S 734 mmHg 88%
    22:00 +20°C° 0.2 mm 2 m/S 734 mmHg 89%
    23:00 +19°C° 0.2 mm 2 m/S 734 mmHg 91%
    Mehr zeigen